Location: Huntsville
(41.2590°N, 111.7678°W)
Time: 08:21:58
(UTC+00:00)

Envisat - Pass Details

Date: 04 December 2021
Orbit: 764 x 766 km, 98.2° (Epoch: 18 January)

Event Time Altitude Azimuth Distance (km) Brightness Sun altitude
Rises 13:53:15 0° 356° (N) 3,242 6.0 -8.2°
Reaches altitude 10° 13:56:20 10° 336° (NNW) 2,310 5.1 -7.6°
Maximum altitude 13:59:28 17° 298° (WNW) 1,885 4.4 -7.1°
Drops below altitude 10° 14:02:34 10° 260° (W) 2,300 5.0 -6.6°
Sets 14:05:39 0° 240° (WSW) 3,221 5.9 -6.0°
